Location: Carabito
(9.8355°N, 67.9249°W)
Time: 10:52:14
(UTC+00:00)

Cosmos 1727 Rocket - Pass Details

Date: 23 May 2024
Orbit: 961 x 996 km, 82.9° (Epoch: 20 June)

Event Time Altitude Azimuth Distance (km) Brightness Sun altitude
Rises 09:34:41 0° 358° (N) 3,667 7.3 -8.9°
Reaches altitude 10° 09:37:11 10° 359° (N) 2,724 6.7 -8.3°
Maximum altitude 09:43:26 81° 86° (E) 1,000 4.2 -6.9°
Drops below altitude 10° 09:49:45 10° 174° (S) 2,748 6.2 -5.4°
Sets 09:52:16 0° 175° (S) 3,700 6.9 -4.9°
